TimeMDT,TemperatureF,Dew PointF,Humidity,Sea Level PressureIn,VisibilityMPH,Wind Direction,Wind SpeedMPH,Gust SpeedMPH,PrecipitationIn,Events,Conditions,WindDirDegrees,DateUTC
12:56 AM,51.1,35.1,54,29.93,10.0,South,12.7,-,N/A,,Clear,170,2011-10-01 06:56:00
1:56 AM,51.1,35.1,54,29.91,10.0,South,15.0,-,N/A,,Clear,170,2011-10-01 07:56:00
2:56 AM,51.1,35.1,54,29.91,10.0,South,16.1,-,N/A,,Clear,180,2011-10-01 08:56:00
3:56 AM,51.1,35.1,54,29.89,10.0,South,13.8,-,N/A,,Clear,180,2011-10-01 09:56:00
4:56 AM,46.9,35.1,63,29.91,10.0,South,5.8,-,N/A,,Clear,180,2011-10-01 10:56:00
5:56 AM,46.0,35.1,66,29.92,10.0,South,5.8,-,N/A,,Clear,170,2011-10-01 11:56:00
7:56 AM,50.0,37.0,61,29.95,10.0,South,6.9,-,N/A,,Clear,180,2011-10-01 13:56:00
8:56 AM,62.1,39.0,43,29.94,10.0,SW,5.8,-,N/A,,Clear,220,2011-10-01 14:56:00
9:56 AM,72.0,39.0,30,29.94,10.0,WNW,8.1,-,N/A,,Clear,290,2011-10-01 15:56:00
11:56 AM,81.0,41.0,24,29.93,10.0,North,8.1,-,N/A,,Clear,350,2011-10-01 17:56:00
12:56 PM,84.0,41.0,22,29.92,10.0,Variable,3.5,-,N/A,,Clear,0,2011-10-01 18:56:00
1:56 PM,84.9,41.0,21,29.91,10.0,ESE,5.8,-,N/A,,Clear,120,2011-10-01 19:56:00
3:56 PM,87.1,39.9,19,29.90,10.0,East,6.9,-,N/A,,Clear,80,2011-10-01 21:56:00
5:05 PM,84.2,42.8,23,29.93,10.0,East,8.1,-,N/A,,Clear,90,2011-10-01 23:05:00
5:56 PM,75.9,44.1,32,29.91,10.0,East,6.9,-,N/A,,Clear,100,2011-10-01 23:56:00
6:56 PM,66.9,43.0,42,29.92,10.0,East,8.1,-,N/A,,Clear,100,2011-10-02 00:56:00
7:56 PM,64.0,44.1,48,29.92,10.0,ESE,10.4,-,N/A,,Clear,110,2011-10-02 01:56:00
8:56 PM,60.1,44.1,55,29.91,10.0,ESE,10.4,-,N/A,,Clear,110,2011-10-02 02:56:00
9:56 PM,64.0,42.1,45,29.89,10.0,SSE,12.7,-,N/A,,Clear,150,2011-10-02 03:56:00
10:56 PM,62.1,41.0,46,29.88,10.0,SSE,9.2,-,N/A,,Clear,160,2011-10-02 04:56:00
11:56 PM,57.9,41.0,53,29.87,10.0,South,10.4,-,N/A,,Clear,170,2011-10-02 05:56:00